N179LJ KIND-MKJS

Flight info

Callsign N179LJ
Flight time 2h 51m
Altitude 33000
Route DAWNN1 IIU J99 VXV DCT WORXS DCT TEUFL DCT MALET Q93 EBAYY Q97 TOVAR Y297 URSUS UL780 TASNO UM221 NIBEO UL341 ENARI LENAR7
Aircraft B744/H-SDE3FGHIM1M2RWXY/LB1

Departure

Time 2026-05-06 21:34
Airport Indianapolis International Airport (KIND)

Arrival

Time 2026-05-07 00:25
Airport Sangster International Airport (MKJS)
Time Latitude Longitude Altitude Speed Heading
2026-05-06 21:16 39.72371 -86.30569 763 ft 0 kts 360°
2026-05-06 21:24 39.72360 -86.30570 763 ft 2 kts
2026-05-06 21:24 39.72345 -86.30573 763 ft 2 kts 18°
2026-05-06 21:24 39.72331 -86.30580 763 ft 2 kts 26°
2026-05-06 21:25 39.72317 -86.30589 763 ft 2 kts 35°
2026-05-06 21:25 39.72306 -86.30602 763 ft 2 kts 44°
2026-05-06 21:25 39.72295 -86.30615 763 ft 2 kts 45°
2026-05-06 21:25 39.72285 -86.30629 763 ft 2 kts 44°
2026-05-06 21:26 39.72274 -86.30643 763 ft 2 kts 44°
2026-05-06 21:26 39.72267 -86.30651 763 ft 0 kts 44°
2026-05-06 21:29 39.72268 -86.30651 763 ft 0 kts 44°
2026-05-06 21:30 39.72282 -86.30615 763 ft 10 kts 92°
2026-05-06 21:30 39.72227 -86.30505 763 ft 17 kts 124°
2026-05-06 21:30 39.72241 -86.30366 766 ft 18 kts 45°
2026-05-06 21:30 39.72345 -86.30237 768 ft 22 kts 43°
2026-05-06 21:31 39.72466 -86.30081 771 ft 26 kts 45°
2026-05-06 21:31 39.72606 -86.29905 775 ft 30 kts 44°
2026-05-06 21:31 39.72765 -86.29707 779 ft 33 kts 46°
2026-05-06 21:31 39.72910 -86.29519 781 ft 16 kts 48°
2026-05-06 21:32 39.72903 -86.29398 784 ft 15 kts 136°
2026-05-06 21:32 39.72751 -86.29391 785 ft 0 kts 224°
2026-05-06 21:32 39.72734 -86.29412 785 ft 13 kts 224°
2026-05-06 21:33 39.72572 -86.29621 781 ft 56 kts 225°
2026-05-06 21:33 39.72148 -86.30165 770 ft 113 kts 225°
2026-05-06 21:33 39.71448 -86.31058 756 ft 165 kts 225°
2026-05-06 21:33 39.70547 -86.32219 886 ft 196 kts 227°
2026-05-06 21:34 39.69534 -86.33408 1556 ft 198 kts 214°
2026-05-06 21:34 39.68253 -86.34089 2205 ft 207 kts 194°
2026-05-06 21:34 39.66781 -86.34219 2822 ft 214 kts 177°
2026-05-06 21:34 39.65314 -86.33858 3424 ft 222 kts 161°
2026-05-06 21:35 39.63829 -86.33158 3870 ft 233 kts 162°
2026-05-06 21:35 39.62217 -86.32528 4221 ft 250 kts 167°
2026-05-06 21:35 39.60515 -86.32000 4732 ft 257 kts 170°
2026-05-06 21:35 39.58710 -86.31537 5159 ft 267 kts 172°
2026-05-06 21:36 39.56848 -86.31148 5631 ft 274 kts 174°
2026-05-06 21:36 39.54968 -86.30830 6188 ft 276 kts 175°
2026-05-06 21:36 39.53057 -86.30559 6709 ft 279 kts 177°
2026-05-06 21:36 39.51097 -86.30307 7265 ft 280 kts 179°
2026-05-06 21:37 39.49168 -86.30109 7847 ft 280 kts 180°
2026-05-06 21:37 39.47227 -86.29929 8413 ft 280 kts 181°
2026-05-06 21:37 39.45271 -86.29774 8944 ft 281 kts 182°
2026-05-06 21:37 39.43323 -86.29633 9463 ft 282 kts 184°
2026-05-06 21:38 39.41347 -86.29502 9978 ft 283 kts 184°
2026-05-06 21:38 39.39392 -86.29388 10467 ft 283 kts 185°
2026-05-06 21:38 39.37411 -86.29290 10865 ft 286 kts 186°
2026-05-06 21:38 39.35389 -86.29192 11156 ft 295 kts 186°
2026-05-06 21:39 39.33310 -86.29101 11329 ft 306 kts 186°
2026-05-06 21:39 39.31150 -86.29020 11512 ft 315 kts 186°
2026-05-06 21:39 39.28938 -86.28922 11894 ft 317 kts 186°
2026-05-06 21:39 39.26738 -86.28835 12293 ft 317 kts 187°
2026-05-06 21:40 39.24540 -86.28738 12713 ft 317 kts 187°
2026-05-06 21:40 39.22342 -86.28642 13169 ft 315 kts 188°
2026-05-06 21:40 39.20139 -86.28557 13563 ft 317 kts 188°
2026-05-06 21:40 39.17930 -86.28455 14010 ft 317 kts 188°
2026-05-06 21:41 39.15715 -86.28347 14442 ft 318 kts 189°
2026-05-06 21:41 39.13475 -86.28250 14761 ft 323 kts 189°
2026-05-06 21:41 39.11220 -86.28172 15161 ft 325 kts 190°
2026-05-06 21:41 39.08954 -86.28108 15582 ft 327 kts 191°
2026-05-06 21:42 39.06681 -86.28041 16027 ft 327 kts 191°
2026-05-06 21:42 39.04412 -86.28037 16390 ft 328 kts 194°
2026-05-06 21:42 39.02111 -86.28041 16743 ft 338 kts 187°
2026-05-06 21:42 38.99737 -86.27690 17025 ft 348 kts 186°
2026-05-06 21:43 38.97314 -86.27354 17423 ft 347 kts 187°
2026-05-06 21:43 38.94902 -86.27062 17856 ft 348 kts 188°
2026-05-06 21:43 38.92502 -86.26762 18259 ft 349 kts 188°
2026-05-06 21:43 38.90070 -86.26485 18633 ft 351 kts 188°
2026-05-06 21:44 38.87630 -86.26193 19098 ft 351 kts 188°
2026-05-06 21:44 38.85189 -86.25902 19589 ft 348 kts 189°
2026-05-06 21:44 38.82804 -86.25629 20087 ft 346 kts 189°
2026-05-06 21:44 38.80415 -86.25333 20525 ft 345 kts 189°
2026-05-06 21:45 38.78027 -86.25051 20968 ft 344 kts 189°
2026-05-06 21:45 38.75634 -86.24762 21344 ft 345 kts 189°
2026-05-06 21:45 38.73253 -86.24483 21764 ft 345 kts 189°
2026-05-06 21:45 38.70846 -86.24181 22177 ft 345 kts 189°
2026-05-06 21:46 38.68458 -86.23862 22585 ft 344 kts 189°
2026-05-06 21:46 38.66069 -86.23564 22969 ft 344 kts 190°
2026-05-06 21:46 38.63705 -86.23291 23314 ft 344 kts 191°
2026-05-06 21:46 38.61303 -86.23058 23653 ft 346 kts 191°
2026-05-06 21:47 38.58895 -86.22746 23968 ft 358 kts 184°
2026-05-06 21:47 38.56408 -86.21699 24241 ft 389 kts 169°
2026-05-06 21:47 38.54053 -86.19762 24550 ft 418 kts 154°
2026-05-06 21:47 38.51957 -86.17008 24769 ft 444 kts 143°
2026-05-06 21:48 38.50019 -86.13955 25003 ft 448 kts 144°
2026-05-06 21:48 38.47979 -86.10953 25402 ft 444 kts 146°
2026-05-06 21:48 38.45903 -86.08028 25717 ft 446 kts 145°
2026-05-06 21:48 38.43840 -86.05061 26070 ft 448 kts 146°
2026-05-06 21:49 38.41748 -86.02087 26382 ft 449 kts 146°
2026-05-06 21:49 38.39648 -85.99148 26614 ft 453 kts 146°
2026-05-06 21:49 38.37530 -85.96151 26855 ft 457 kts 146°
2026-05-06 21:49 38.35364 -85.93129 27055 ft 460 kts 147°
2026-05-06 21:50 38.33203 -85.90105 27365 ft 463 kts 146°
2026-05-06 21:50 38.31032 -85.87061 27599 ft 465 kts 146°
2026-05-06 21:50 38.28852 -85.84042 27843 ft 469 kts 146°
2026-05-06 21:50 38.26658 -85.80925 28143 ft 470 kts 146°
2026-05-06 21:51 38.24445 -85.77874 28351 ft 475 kts 146°
2026-05-06 21:51 38.22217 -85.74740 28720 ft 475 kts 146°
2026-05-06 21:51 38.19992 -85.71662 29051 ft 475 kts 147°
2026-05-06 21:51 38.17721 -85.68608 29341 ft 477 kts 147°
2026-05-06 21:52 38.15431 -85.65460 29516 ft 484 kts 145°
2026-05-06 21:52 38.13130 -85.62217 29731 ft 490 kts 144°
2026-05-06 21:52 38.10903 -85.58916 29999 ft 493 kts 146°
2026-05-06 21:52 38.08460 -85.55990 30211 ft 471 kts 159°
2026-05-06 21:53 38.05696 -85.53813 30458 ft 453 kts 167°
2026-05-06 21:53 38.02914 -85.51877 30669 ft 460 kts 165°
2026-05-06 21:53 38.00150 -85.49770 30941 ft 466 kts 164°
2026-05-06 21:53 37.97382 -85.47607 31343 ft 465 kts 164°
2026-05-06 21:54 37.94617 -85.45458 31565 ft 468 kts 164°
2026-05-06 21:54 37.91850 -85.43322 31798 ft 471 kts 163°
2026-05-06 21:54 37.89055 -85.41127 32135 ft 472 kts 163°
2026-05-06 21:54 37.86241 -85.38909 32421 ft 473 kts 164°
2026-05-06 21:55 37.83443 -85.36729 32645 ft 476 kts 164°
2026-05-06 21:55 37.80600 -85.34501 32828 ft 481 kts 164°
2026-05-06 21:55 37.77756 -85.32289 32929 ft 487 kts 164°
2026-05-06 21:55 37.74829 -85.29990 33003 ft 494 kts 164°
2026-05-06 21:56 37.68919 -85.25359 33044 ft 506 kts 163°
2026-05-06 21:56 37.62851 -85.20631 33034 ft 517 kts 163°
2026-05-06 21:57 37.56730 -85.15846 32998 ft 523 kts 163°
2026-05-06 21:57 37.50503 -85.11013 32980 ft 526 kts 163°
2026-05-06 21:58 37.44241 -85.06182 32953 ft 527 kts 163°
2026-05-06 21:58 37.38116 -85.01193 32963 ft 527 kts 161°
2026-05-06 21:59 37.31914 -84.96514 32952 ft 521 kts 163°
2026-05-06 21:59 37.25652 -84.91740 32990 ft 526 kts 163°
2026-05-06 22:00 37.19438 -84.86952 32968 ft 526 kts 163°
2026-05-06 22:00 37.13148 -84.82137 32975 ft 527 kts 162°
2026-05-06 22:01 37.06907 -84.77361 32966 ft 530 kts 162°
2026-05-06 22:01 37.00599 -84.72520 32983 ft 527 kts 162°
2026-05-06 22:02 36.94338 -84.67764 32985 ft 529 kts 162°
2026-05-06 22:02 36.88090 -84.63045 32979 ft 528 kts 162°
2026-05-06 22:03 36.81840 -84.58192 32979 ft 533 kts 160°
2026-05-06 22:03 36.75568 -84.53304 32979 ft 525 kts 163°
2026-05-06 22:04 36.69247 -84.48619 32954 ft 529 kts 162°
2026-05-06 22:04 36.62974 -84.43899 32951 ft 531 kts 162°
2026-05-06 22:05 36.56647 -84.39111 32959 ft 530 kts 161°
2026-05-06 22:05 36.50341 -84.34389 32936 ft 531 kts 162°
2026-05-06 22:06 36.44029 -84.29617 32927 ft 528 kts 162°
2026-05-06 22:06 36.37710 -84.24875 32944 ft 531 kts 162°
2026-05-06 22:07 36.31372 -84.20136 32956 ft 531 kts 162°
2026-05-06 22:07 36.25049 -84.15407 32959 ft 532 kts 161°
2026-05-06 22:08 36.18740 -84.10683 32948 ft 528 kts 162°
2026-05-06 22:08 36.12416 -84.05980 32940 ft 531 kts 161°
2026-05-06 22:09 36.06068 -84.01274 32932 ft 534 kts 161°
2026-05-06 22:09 35.99670 -83.96549 32937 ft 532 kts 162°
2026-05-06 22:10 35.93334 -83.91820 32935 ft 531 kts 160°
2026-05-06 22:10 35.86980 -83.87584 32878 ft 505 kts 173°
2026-05-06 22:11 35.80339 -83.84628 32933 ft 511 kts 171°
2026-05-06 22:11 35.73668 -83.81458 32942 ft 512 kts 171°
2026-05-06 22:12 35.67045 -83.78324 32891 ft 508 kts 170°
2026-05-06 22:12 35.60401 -83.75156 32900 ft 512 kts 169°
2026-05-06 22:13 35.53756 -83.71967 32939 ft 514 kts 169°
2026-05-06 22:13 35.47102 -83.68800 32962 ft 509 kts 168°
2026-05-06 22:14 35.40525 -83.65655 32953 ft 505 kts 169°
2026-05-06 22:14 35.33928 -83.62538 32990 ft 510 kts 168°
2026-05-06 22:15 35.27296 -83.59372 33014 ft 511 kts 168°
2026-05-06 22:15 35.20631 -83.56242 33008 ft 514 kts 168°
2026-05-06 22:16 35.13929 -83.53078 33014 ft 511 kts 168°
2026-05-06 22:16 35.07305 -83.49927 32996 ft 505 kts 167°
2026-05-06 22:17 35.00774 -83.46865 33031 ft 503 kts 167°
2026-05-06 22:17 34.94196 -83.43769 33048 ft 508 kts 167°
2026-05-06 22:18 34.87547 -83.40638 33045 ft 511 kts 167°
2026-05-06 22:18 34.80877 -83.37527 32996 ft 513 kts 167°
2026-05-06 22:19 34.74191 -83.34383 32991 ft 515 kts 167°
2026-05-06 22:19 34.67521 -83.31276 32947 ft 514 kts 168°
2026-05-06 22:20 34.60811 -83.28160 32979 ft 513 kts 167°
2026-05-06 22:20 34.54051 -83.25039 32972 ft 522 kts 167°
2026-05-06 22:21 34.47294 -83.21866 32962 ft 516 kts 168°
2026-05-06 22:21 34.40569 -83.18793 32916 ft 519 kts 168°
2026-05-06 22:22 34.33751 -83.15636 32952 ft 522 kts 167°
2026-05-06 22:22 34.26984 -83.12498 32951 ft 521 kts 168°
2026-05-06 22:23 34.20185 -83.09373 32909 ft 522 kts 168°
2026-05-06 22:23 34.13377 -83.06243 32942 ft 523 kts 168°
2026-05-06 22:24 34.06592 -83.03170 32934 ft 524 kts 168°
2026-05-06 22:24 33.99725 -82.99989 32960 ft 525 kts 167°
2026-05-06 22:25 33.92941 -82.96762 32932 ft 523 kts 168°
2026-05-06 22:25 33.86122 -82.93587 32944 ft 526 kts 167°
2026-05-06 22:26 33.79279 -82.90381 32958 ft 524 kts 167°
2026-05-06 22:26 33.72434 -82.87189 32944 ft 528 kts 167°
2026-05-06 22:27 33.65579 -82.83963 32967 ft 529 kts 167°
2026-05-06 22:27 33.58731 -82.80761 32946 ft 527 kts 167°
2026-05-06 22:28 33.51850 -82.77550 32948 ft 528 kts 167°
2026-05-06 22:28 33.45011 -82.74347 32953 ft 528 kts 167°
2026-05-06 22:29 33.38135 -82.71155 32962 ft 532 kts 167°
2026-05-06 22:29 33.31251 -82.67937 32948 ft 527 kts 167°
2026-05-06 22:30 33.24432 -82.64777 32933 ft 530 kts 167°
2026-05-06 22:30 33.17488 -82.61572 32973 ft 533 kts 167°
2026-05-06 22:31 33.10582 -82.58377 32966 ft 531 kts 167°
2026-05-06 22:31 33.03687 -82.55177 32959 ft 529 kts 167°
2026-05-06 22:32 32.96828 -82.52027 32958 ft 531 kts 167°
2026-05-06 22:32 32.89887 -82.48829 32960 ft 534 kts 167°
2026-05-06 22:33 32.82942 -82.45631 32973 ft 534 kts 166°
2026-05-06 22:33 32.76042 -82.42471 32960 ft 533 kts 166°
2026-05-06 22:34 32.69081 -82.39274 32970 ft 532 kts 166°
2026-05-06 22:34 32.62168 -82.36125 32965 ft 536 kts 166°
2026-05-06 22:35 32.55194 -82.32937 32955 ft 535 kts 167°
2026-05-06 22:35 32.48253 -82.29775 32960 ft 534 kts 167°
2026-05-06 22:36 32.41275 -82.26598 32969 ft 535 kts 167°
2026-05-06 22:36 32.34301 -82.23425 32981 ft 535 kts 167°
2026-05-06 22:37 32.27364 -82.20270 32977 ft 535 kts 167°
2026-05-06 22:37 32.20378 -82.17122 32984 ft 537 kts 166°
2026-05-06 22:38 32.13422 -82.13973 32978 ft 535 kts 166°
2026-05-06 22:38 32.06430 -82.10809 32990 ft 536 kts 167°
2026-05-06 22:39 31.99451 -82.07684 32980 ft 537 kts 167°
2026-05-06 22:39 31.92460 -82.04540 32976 ft 537 kts 166°
2026-05-06 22:40 31.85453 -82.01296 32946 ft 535 kts 168°
2026-05-06 22:40 31.78393 -81.98778 32979 ft 534 kts 169°
2026-05-06 22:41 31.67720 -81.94813 32970 ft 534 kts 170°
2026-05-06 22:42 31.60650 -81.92180 32983 ft 535 kts 169°
2026-05-06 22:42 31.53565 -81.89543 32987 ft 533 kts 169°
2026-05-06 22:43 31.46470 -81.86902 32992 ft 535 kts 169°
2026-05-06 22:43 31.39352 -81.84261 32994 ft 536 kts 169°
2026-05-06 22:44 31.32203 -81.81615 32992 ft 537 kts 169°
2026-05-06 22:44 31.25071 -81.78976 32965 ft 534 kts 169°
2026-05-06 22:45 31.17974 -81.76350 32975 ft 535 kts 169°
2026-05-06 22:45 31.10891 -81.73737 32993 ft 536 kts 169°
2026-05-06 22:46 31.03732 -81.71100 32986 ft 537 kts 169°
2026-05-06 22:46 30.96569 -81.68479 32983 ft 539 kts 169°
2026-05-06 22:47 30.89367 -81.65820 32983 ft 537 kts 169°
2026-05-06 22:47 30.82250 -81.63214 32989 ft 538 kts 168°
2026-05-06 22:48 30.75087 -81.60595 32990 ft 538 kts 168°
2026-05-06 22:48 30.67957 -81.57978 33006 ft 538 kts 169°
2026-05-06 22:49 30.60761 -81.55362 33018 ft 539 kts 168°
2026-05-06 22:49 30.53627 -81.52761 33019 ft 538 kts 168°
2026-05-06 22:50 30.46474 -81.50149 33008 ft 536 kts 168°
2026-05-06 22:50 30.39319 -81.47565 33019 ft 539 kts 168°
2026-05-06 22:51 30.32118 -81.44949 33029 ft 541 kts 168°
2026-05-06 22:51 30.24952 -81.42345 33013 ft 537 kts 168°
2026-05-06 22:52 30.17831 -81.39774 33014 ft 538 kts 168°
2026-05-06 22:52 30.10671 -81.37191 33025 ft 538 kts 168°
2026-05-06 22:53 30.03528 -81.34607 33019 ft 538 kts 168°
2026-05-06 22:53 29.96349 -81.32034 33015 ft 537 kts 168°
2026-05-06 22:54 29.89214 -81.29460 33023 ft 536 kts 168°
2026-05-06 22:54 29.82089 -81.26904 33032 ft 536 kts 168°
2026-05-06 22:55 29.74949 -81.24348 33039 ft 537 kts 168°
2026-05-06 22:55 29.67799 -81.21785 33033 ft 536 kts 168°
2026-05-06 22:56 29.60646 -81.19235 33040 ft 535 kts 168°
2026-05-06 22:56 29.53552 -81.16707 33050 ft 537 kts 168°
2026-05-06 22:57 29.46390 -81.14146 33050 ft 536 kts 168°
2026-05-06 22:57 29.39253 -81.11612 33050 ft 535 kts 168°
2026-05-06 22:58 29.32094 -81.09074 33051 ft 534 kts 168°
2026-05-06 22:58 29.25011 -81.06561 33052 ft 535 kts 168°
2026-05-06 22:59 29.17894 -81.04036 33060 ft 534 kts 168°
2026-05-06 22:59 29.10778 -81.01524 33053 ft 533 kts 168°
2026-05-06 23:00 29.03680 -80.99014 33063 ft 534 kts 168°
2026-05-06 23:00 28.96567 -80.96506 33058 ft 534 kts 168°
2026-05-06 23:01 28.89428 -80.93993 33049 ft 533 kts 168°
2026-05-06 23:01 28.82318 -80.91494 33038 ft 533 kts 168°
2026-05-06 23:02 28.75226 -80.89017 33050 ft 534 kts 167°
2026-05-06 23:02 28.68109 -80.86427 33039 ft 534 kts 166°
2026-05-06 23:03 28.61047 -80.83738 33046 ft 533 kts 166°
2026-05-06 23:03 28.54000 -80.81052 33051 ft 534 kts 166°
2026-05-06 23:04 28.46944 -80.78354 33056 ft 534 kts 166°
2026-05-06 23:04 28.39899 -80.75658 33051 ft 534 kts 166°
2026-05-06 23:05 28.32875 -80.72974 33051 ft 534 kts 166°
2026-05-06 23:05 28.25790 -80.70271 33052 ft 535 kts 166°
2026-05-06 23:06 28.18703 -80.67579 33046 ft 535 kts 165°
2026-05-06 23:06 28.11641 -80.64893 33046 ft 533 kts 165°
2026-05-06 23:07 28.04602 -80.62218 33046 ft 534 kts 166°
2026-05-06 23:07 27.97534 -80.59532 33049 ft 534 kts 166°
2026-05-06 23:08 27.90498 -80.56870 33053 ft 533 kts 165°
2026-05-06 23:08 27.83447 -80.54218 33041 ft 533 kts 166°
2026-05-06 23:09 27.76385 -80.51540 33053 ft 533 kts 165°
2026-05-06 23:09 27.69382 -80.48784 33059 ft 533 kts 164°
2026-05-06 23:10 27.62344 -80.46019 33055 ft 533 kts 164°
2026-05-06 23:10 27.55364 -80.43256 33059 ft 533 kts 164°
2026-05-06 23:11 27.48334 -80.40479 33060 ft 533 kts 164°
2026-05-06 23:11 27.41281 -80.37690 33057 ft 534 kts 164°
2026-05-06 23:12 27.34302 -80.34940 33058 ft 533 kts 164°
2026-05-06 23:12 27.27257 -80.32155 33049 ft 531 kts 164°
2026-05-06 23:13 27.20279 -80.29413 33049 ft 530 kts 164°
2026-05-06 23:13 27.13333 -80.26677 33053 ft 530 kts 164°
2026-05-06 23:14 27.06327 -80.23933 33052 ft 530 kts 164°
2026-05-06 23:14 26.99363 -80.21205 33053 ft 531 kts 164°
2026-05-06 23:15 26.92350 -80.18450 33056 ft 532 kts 164°
2026-05-06 23:15 26.85385 -80.15724 33046 ft 530 kts 164°
2026-05-06 23:16 26.78378 -80.12989 33049 ft 529 kts 164°
2026-05-06 23:16 26.71444 -80.10290 33061 ft 529 kts 164°
2026-05-06 23:17 26.64426 -80.07570 33061 ft 530 kts 164°
2026-05-06 23:17 26.57496 -80.04849 33063 ft 530 kts 163°
2026-05-06 23:18 26.50474 -80.02103 33065 ft 530 kts 164°
2026-05-06 23:18 26.43507 -79.99414 33061 ft 529 kts 164°
2026-05-06 23:19 26.36535 -79.96725 33060 ft 529 kts 163°
2026-05-06 23:19 26.29535 -79.94016 33060 ft 530 kts 163°
2026-05-06 23:20 26.22553 -79.91310 33059 ft 530 kts 163°
2026-05-06 23:20 26.15614 -79.88632 33060 ft 530 kts 163°
2026-05-06 23:21 26.08625 -79.85940 33061 ft 529 kts 163°
2026-05-06 23:21 26.01630 -79.83258 33057 ft 529 kts 163°
2026-05-06 23:22 25.94672 -79.80571 33047 ft 529 kts 163°
2026-05-06 23:22 25.87680 -79.77861 33043 ft 530 kts 164°
2026-05-06 23:23 25.80703 -79.75196 33049 ft 531 kts 163°
2026-05-06 23:23 25.73705 -79.72539 33047 ft 529 kts 163°
2026-05-06 23:24 25.66756 -79.69862 33040 ft 528 kts 163°
2026-05-06 23:24 25.59756 -79.67179 33051 ft 529 kts 163°
2026-05-06 23:25 25.52800 -79.64529 33050 ft 530 kts 163°
2026-05-06 23:25 25.45803 -79.61870 33048 ft 531 kts 163°
2026-05-06 23:26 25.38793 -79.59200 33043 ft 530 kts 163°
2026-05-06 23:26 25.31780 -79.56534 33040 ft 530 kts 163°
2026-05-06 23:27 25.24818 -79.53893 33045 ft 529 kts 163°
2026-05-06 23:27 25.17804 -79.51232 33037 ft 529 kts 163°
2026-05-06 23:28 25.10835 -79.48593 33039 ft 530 kts 163°
2026-05-06 23:28 25.03855 -79.45950 33036 ft 530 kts 163°
2026-05-06 23:29 24.96861 -79.43310 33038 ft 529 kts 163°
2026-05-06 23:29 24.89855 -79.40663 33039 ft 529 kts 163°
2026-05-06 23:30 24.82858 -79.38022 33035 ft 530 kts 163°
2026-05-06 23:30 24.75871 -79.35395 33039 ft 530 kts 162°
2026-05-06 23:31 24.68891 -79.32766 33036 ft 530 kts 163°
2026-05-06 23:31 24.61900 -79.30142 33040 ft 531 kts 163°
2026-05-06 23:32 24.54883 -79.27509 33040 ft 530 kts 163°
2026-05-06 23:32 24.47854 -79.24873 33034 ft 530 kts 163°
2026-05-06 23:33 24.40854 -79.22254 33039 ft 530 kts 163°
2026-05-06 23:33 24.33847 -79.19634 33041 ft 530 kts 162°
2026-05-06 23:34 24.26844 -79.17014 33044 ft 529 kts 163°
2026-05-06 23:34 24.19843 -79.14401 33049 ft 528 kts 163°
2026-05-06 23:35 24.12888 -79.11814 33051 ft 528 kts 163°
2026-05-06 23:35 24.05872 -79.09207 33056 ft 530 kts 162°
2026-05-06 23:36 23.98815 -79.07003 33013 ft 525 kts 175°
2026-05-06 23:36 23.95144 -79.06864 33027 ft 520 kts 186°
2026-05-06 23:36 23.91564 -79.07111 33071 ft 520 kts 185°
2026-05-06 23:37 23.84246 -79.07327 33056 ft 521 kts 184°
2026-05-06 23:37 23.76964 -79.07510 33050 ft 521 kts 184°
2026-05-06 23:38 23.69705 -79.07680 33049 ft 520 kts 184°
2026-05-06 23:38 23.62422 -79.07847 33052 ft 521 kts 184°
2026-05-06 23:39 23.55169 -79.08006 33051 ft 521 kts 184°
2026-05-06 23:39 23.47873 -79.08170 33050 ft 520 kts 184°
2026-05-06 23:40 23.41832 -79.08305 33048 ft 521 kts 184°
2026-05-06 23:40 23.34528 -79.08469 33047 ft 521 kts 184°
2026-05-06 23:41 23.27270 -79.08626 33050 ft 521 kts 184°
2026-05-06 23:41 23.19992 -79.08788 33046 ft 520 kts 184°
2026-05-06 23:42 23.12701 -79.08946 33046 ft 520 kts 184°
2026-05-06 23:42 23.05450 -79.09108 33048 ft 520 kts 184°
2026-05-06 23:43 22.98194 -79.09273 33048 ft 519 kts 184°
2026-05-06 23:43 22.90937 -79.09434 33044 ft 518 kts 184°
2026-05-06 23:44 22.83688 -79.09592 33040 ft 518 kts 183°
2026-05-06 23:44 22.76461 -79.09754 33048 ft 518 kts 183°
2026-05-06 23:45 22.69218 -79.09904 33048 ft 518 kts 183°
2026-05-06 23:45 22.61944 -79.10053 33047 ft 519 kts 184°
2026-05-06 23:46 22.54628 -79.10224 33052 ft 519 kts 184°
2026-05-06 23:46 22.47298 -79.10386 33049 ft 519 kts 183°
2026-05-06 23:47 22.40013 -79.10542 33051 ft 519 kts 183°
2026-05-06 23:47 22.32711 -79.10702 33056 ft 519 kts 183°
2026-05-06 23:48 22.25388 -79.10865 33061 ft 520 kts 184°
2026-05-06 23:48 22.18122 -79.11021 33064 ft 520 kts 183°
2026-05-06 23:49 22.10815 -79.10789 33022 ft 523 kts 171°
2026-05-06 23:49 22.03670 -79.09099 33077 ft 522 kts 170°
2026-05-06 23:50 21.96505 -79.07512 33066 ft 522 kts 169°
2026-05-06 23:50 21.85694 -79.05121 33058 ft 524 kts 169°
2026-05-06 23:51 21.78565 -79.03542 33052 ft 522 kts 169°
2026-05-06 23:51 21.71399 -79.01961 33047 ft 522 kts 169°
2026-05-06 23:52 21.64246 -79.00382 33051 ft 523 kts 169°
2026-05-06 23:52 21.57046 -78.98795 33045 ft 524 kts 169°
2026-05-06 23:53 21.49813 -78.97199 33045 ft 525 kts 169°
2026-05-06 23:53 21.42631 -78.95621 33034 ft 524 kts 169°
2026-05-06 23:54 21.35455 -78.94035 33036 ft 523 kts 169°
2026-05-06 23:54 21.28322 -78.92476 33035 ft 523 kts 169°
2026-05-06 23:55 21.21179 -78.90896 33034 ft 523 kts 169°
2026-05-06 23:55 21.14021 -78.89326 33030 ft 523 kts 169°
2026-05-06 23:56 21.06850 -78.87759 33031 ft 523 kts 169°
2026-05-06 23:56 20.99668 -78.86192 33027 ft 521 kts 168°
2026-05-06 23:57 20.92539 -78.84637 33027 ft 522 kts 168°
2026-05-06 23:57 20.85367 -78.83070 33019 ft 523 kts 168°
2026-05-06 23:58 20.78230 -78.81508 33021 ft 523 kts 168°
2026-05-06 23:58 20.71014 -78.79936 33014 ft 523 kts 168°
2026-05-06 23:59 20.63894 -78.78391 33011 ft 522 kts 168°
2026-05-06 23:59 20.56750 -78.76837 33009 ft 522 kts 168°
2026-05-07 00:00 20.49574 -78.75281 33007 ft 522 kts 168°
2026-05-07 00:00 20.43618 -78.73986 33009 ft 522 kts 168°
2026-05-07 00:01 20.35287 -78.72176 33010 ft 521 kts 168°
2026-05-07 00:01 20.28152 -78.70628 33014 ft 522 kts 168°
2026-05-07 00:02 20.20961 -78.69074 33012 ft 522 kts 168°
2026-05-07 00:02 20.13828 -78.67532 33005 ft 520 kts 168°
2026-05-07 00:03 20.06704 -78.65993 33018 ft 519 kts 168°
2026-05-07 00:03 19.99649 -78.64325 32991 ft 518 kts 160°
2026-05-07 00:04 19.93060 -78.61131 33049 ft 520 kts 153°
2026-05-07 00:04 19.86485 -78.57944 32947 ft 513 kts 154°
2026-05-07 00:05 19.83255 -78.56371 32665 ft 509 kts 154°
2026-05-07 00:05 19.80016 -78.54806 32247 ft 505 kts 154°
2026-05-07 00:05 19.76863 -78.53270 31748 ft 502 kts 154°
2026-05-07 00:05 19.73671 -78.51723 31179 ft 500 kts 154°
2026-05-07 00:06 19.70497 -78.50188 30558 ft 495 kts 154°
2026-05-07 00:06 19.67381 -78.48678 29898 ft 487 kts 154°
2026-05-07 00:06 19.64353 -78.47214 29200 ft 479 kts 154°
2026-05-07 00:06 19.61309 -78.45742 28448 ft 473 kts 154°
2026-05-07 00:07 19.58303 -78.44295 27681 ft 468 kts 154°
2026-05-07 00:07 19.55362 -78.42886 26926 ft 463 kts 154°
2026-05-07 00:07 19.52421 -78.41472 26161 ft 459 kts 153°
2026-05-07 00:07 19.49500 -78.40065 25401 ft 454 kts 153°
2026-05-07 00:08 19.46649 -78.38688 24652 ft 450 kts 153°
2026-05-07 00:08 19.43801 -78.37315 23903 ft 446 kts 153°
2026-05-07 00:08 19.40953 -78.35944 23160 ft 442 kts 153°
2026-05-07 00:08 19.38158 -78.34596 22438 ft 438 kts 153°
2026-05-07 00:09 19.35415 -78.33272 21763 ft 434 kts 153°
2026-05-07 00:09 19.32658 -78.31937 21085 ft 430 kts 153°
2026-05-07 00:09 19.29942 -78.30621 20416 ft 426 kts 153°
2026-05-07 00:09 19.27269 -78.29334 19752 ft 422 kts 153°
2026-05-07 00:10 19.24589 -78.28040 19087 ft 418 kts 153°
2026-05-07 00:10 19.21958 -78.26778 18427 ft 414 kts 153°
2026-05-07 00:10 19.19345 -78.25520 17769 ft 410 kts 153°
2026-05-07 00:10 19.16734 -78.24263 17118 ft 406 kts 154°
2026-05-07 00:11 19.14166 -78.23029 16471 ft 402 kts 154°
2026-05-07 00:11 19.11652 -78.21828 15841 ft 398 kts 154°
2026-05-07 00:11 19.09135 -78.20619 15203 ft 394 kts 154°
2026-05-07 00:11 19.06661 -78.19435 14468 ft 386 kts 154°
2026-05-07 00:12 19.04280 -78.18291 13414 ft 373 kts 154°
2026-05-07 00:12 19.01938 -78.17162 12432 ft 359 kts 154°
2026-05-07 00:12 18.99708 -78.16107 11866 ft 352 kts 155°
2026-05-07 00:12 18.97492 -78.15050 11398 ft 347 kts 154°
2026-05-07 00:13 18.95271 -78.13992 10949 ft 341 kts 154°
2026-05-07 00:13 18.93153 -78.12978 10578 ft 334 kts 154°
2026-05-07 00:13 18.91059 -78.11982 10301 ft 323 kts 154°
2026-05-07 00:13 18.89027 -78.11008 10076 ft 311 kts 154°
2026-05-07 00:14 18.87107 -78.10095 9899 ft 299 kts 154°
2026-05-07 00:14 18.85231 -78.09203 9727 ft 287 kts 154°
2026-05-07 00:14 18.83430 -78.08343 9412 ft 281 kts 153°
2026-05-07 00:14 18.81650 -78.07501 9054 ft 277 kts 153°
2026-05-07 00:15 18.79904 -78.06665 8701 ft 276 kts 153°
2026-05-07 00:15 18.78142 -78.05827 8371 ft 278 kts 153°
2026-05-07 00:15 18.76383 -78.04985 8065 ft 278 kts 153°
2026-05-07 00:15 18.74603 -78.04126 7748 ft 279 kts 152°
2026-05-07 00:16 18.72848 -78.03286 7429 ft 278 kts 153°
2026-05-07 00:16 18.71068 -78.02471 7131 ft 275 kts 160°
2026-05-07 00:16 18.69190 -78.02180 6844 ft 275 kts 181°
2026-05-07 00:16 18.67298 -78.02576 6616 ft 276 kts 194°
2026-05-07 00:17 18.65465 -78.03170 6415 ft 277 kts 193°
2026-05-07 00:17 18.63604 -78.03705 6189 ft 275 kts 192°
2026-05-07 00:17 18.61747 -78.04247 5945 ft 270 kts 193°
2026-05-07 00:17 18.59956 -78.04756 5785 ft 260 kts 192°
2026-05-07 00:18 18.58275 -78.05244 5679 ft 246 kts 192°
2026-05-07 00:18 18.56646 -78.05708 5503 ft 234 kts 192°
2026-05-07 00:18 18.55134 -78.06149 5385 ft 218 kts 192°
2026-05-07 00:18 18.53688 -78.06574 5173 ft 209 kts 191°
2026-05-07 00:19 18.52310 -78.06973 4911 ft 204 kts 191°
2026-05-07 00:19 18.50953 -78.07364 4829 ft 196 kts 192°
2026-05-07 00:19 18.49609 -78.07751 4743 ft 202 kts 191°
2026-05-07 00:19 18.48240 -78.08144 4505 ft 207 kts 192°
2026-05-07 00:20 18.46858 -78.08546 4263 ft 203 kts 192°
2026-05-07 00:20 18.45511 -78.08942 4038 ft 199 kts 191°
2026-05-07 00:20 18.44180 -78.09326 3809 ft 197 kts 188°
2026-05-07 00:20 18.42831 -78.09311 3479 ft 192 kts 159°
2026-05-07 00:21 18.41713 -78.08623 3216 ft 181 kts 129°
2026-05-07 00:21 18.41138 -78.07507 3001 ft 174 kts 99°
2026-05-07 00:21 18.41226 -78.06249 2828 ft 175 kts 70°
2026-05-07 00:21 18.41962 -78.05222 2667 ft 181 kts 40°
2026-05-07 00:22 18.43034 -78.04546 2609 ft 179 kts 35°
2026-05-07 00:22 18.44067 -78.03799 2404 ft 180 kts 42°
2026-05-07 00:22 18.45003 -78.02972 2110 ft 172 kts 49°
2026-05-07 00:22 18.45680 -78.01975 1813 ft 161 kts 66°
2026-05-07 00:23 18.46143 -78.00938 1596 ft 156 kts 68°
2026-05-07 00:23 18.46607 -77.99893 1410 ft 156 kts 68°
2026-05-07 00:23 18.47079 -77.98849 1260 ft 161 kts 68°
2026-05-07 00:23 18.47540 -77.97766 1109 ft 160 kts 68°
2026-05-07 00:24 18.48013 -77.96718 902 ft 160 kts 68°
2026-05-07 00:24 18.48471 -77.95640 677 ft 160 kts 68°
2026-05-07 00:24 18.48944 -77.94570 454 ft 159 kts 67°
2026-05-07 00:24 18.49420 -77.93525 239 ft 158 kts 68°
2026-05-07 00:25 18.49870 -77.92473 39 ft 158 kts 67°
2026-05-07 00:25 18.50266 -77.91550 20 ft 105 kts 66°
2026-05-07 00:25 18.50490 -77.91026 22 ft 43 kts 68°
2026-05-07 00:25 18.50529 -77.90847 23 ft 17 kts 85°
2026-05-07 00:26 18.50534 -77.90766 23 ft 4 kts 89°
2026-05-07 00:26 18.50534 -77.90759 23 ft 0 kts 90°
2026-05-07 00:26 18.50534 -77.90755 23 ft 3 kts 90°
2026-05-07 00:27 18.50525 -77.90702 23 ft 10 kts 125°
2026-05-07 00:27 18.50467 -77.90713 23 ft 11 kts 228°
2026-05-07 00:27 18.50418 -77.90794 23 ft 16 kts 245°
2026-05-07 00:27 18.50352 -77.90942 23 ft 27 kts 244°
2026-05-07 00:28 18.50272 -77.91125 23 ft 12 kts 245°
2026-05-07 00:28 18.50228 -77.91227 24 ft 17 kts 245°
2026-05-07 00:28 18.50139 -77.91310 24 ft 17 kts 178°
2026-05-07 00:28 18.50014 -77.91261 27 ft 20 kts 155°
2026-05-07 00:29 18.49908 -77.91220 29 ft 11 kts 189°
2026-05-07 00:29 18.49860 -77.91287 29 ft 6 kts 248°
2026-05-07 00:30 18.49854 -77.91304 29 ft 0 kts 248°